Location: Kopernik Observatory
(42.0014°N, 76.0372°W)
Time: 16:41:07
(UTC-04:00)

Daily predictions for brighter satellites

Satellite Brightness Start Highest point End
(mag) Time Altitude Azimuth Time Altitude Azimuth Time Altitude Azimuth
Cosmos 1655 Rocket 4.1 20:27:26 10° N 20:33:50 72° E 20:40:09 10° SSE
Cosmos 2242 Rocket 3.8 20:30:05 10° S 20:34:34 81° W 20:39:04 10° N
Cosmos 1862 3.3 20:31:31 10° N 20:35:34 73° E 20:39:36 10° SSE
USA 229 DEB 3.9 20:30:05 10° S 20:36:36 50° ESE 20:43:15 10° NE
USA 229 3.9 20:30:13 10° S 20:36:43 50° ESE 20:43:21 10° NE
Cosmos 2279 Rocket 4.0 20:32:50 10° S 20:39:02 73° E 20:45:15 10° NNE
Cosmos 1408 3.2 20:35:40 10° NNW 20:39:18 60° W 20:42:52 10° S
Cosmos 2322 Rocket 3.2 20:35:50 10° SW 20:41:17 53° WNW 20:46:49 10° NNE
Cosmos 1825 2.9 20:40:02 10° NNW 20:43:47 56° W 20:47:30 10° S
FALCON 9 R/B 2.2 20:44:18 10° SW 20:46:11 17° S 20:47:35 11° SE
Cosmos 2360 Rocket 2.2 20:41:56 10° SSW 20:47:32 71° ESE 20:53:12 10° NNE
Cosmos 1428 Rocket 4.4 20:43:06 10° N 20:49:14 81° E 20:55:22 10° S
ATLAS 5 CENTAUR R/B 2.6 20:46:54 10° NW 20:52:56 77° WSW 20:59:29 10° SSE
COSMOS 2428 3.2 20:51:47 10° S 20:56:58 37° ESE 21:02:10 10° NE
Cosmos 1908 Rocket 3.7 20:52:56 10° N 20:57:12 54° E 21:01:27 10° SSE
Resurs 01 Rocket 2.9 20:55:43 10° S 20:59:55 41° W 21:04:09 10° NNW
USA 267 3.5 20:53:56 10° NE 21:00:30 78° NW 21:07:02 10° WSW
SJ-11-01 4.3 20:57:39 10° SSE 21:02:16 64° ENE 21:06:54 10° N
BREEZE-M DEB (TANK) 4.1 20:59:22 10° WNW 21:02:36 56° N 21:11:42 10° E
Helios 1A 3.0 20:59:36 10° SSE 21:03:51 87° W 21:08:08 10° NNW
Cosmos 1939 Rocket 2.9 21:00:55 10° SSE 21:04:54 63° ENE 21:08:50 10° N
Cosmos 1777 Rocket 4.5 21:00:28 10° N 21:05:32 46° ENE 21:09:29 16° SE
Atlas Centaur 2 3.5 21:02:42 10° WSW 21:08:05 30° S 21:12:50 16° SE
CZ-4B DEB 2.5 21:06:08 12° SSE 21:08:52 82° E 21:11:55 10° N
Cosmos 2322 3.7 21:04:27 10° SSW 21:10:10 89° WNW 21:15:55 10° NNE
Cosmos 1733 Rocket 4.3 21:07:39 10° NNW 21:11:52 43° W 21:16:05 10° SSW
Cosmos 1782 Rocket 3.9 21:07:52 10° N 21:12:06 45° ENE 21:15:11 17° SE
Okean 1-7 3.6 21:08:35 11° SSE 21:12:30 39° E 21:16:36 10° NNE
Abrixas rocket 3.8 21:09:37 10° NW 21:12:34 29° N 21:15:18 11° ENE
Sich 1 Rocket 3.6 21:08:29 10° N 21:13:00 82° E 21:17:33 10° S
SL-16 R/B 4.3 21:08:43 10° WSW 21:13:42 31° NW 21:18:45 10° N
Cosmos 1606 4.2 21:13:17 17° E 21:13:45 18° E 21:16:20 10° NE
YAOGAN 6 3.0 21:11:36 19° SE 21:13:52 44° ENE 21:17:18 10° N
Meteor 1-25 Rocket 4.4 21:16:24 10° N 21:21:52 54° ENE 21:25:48 19° SSE
Cosmos 968 Rocket 4.0 21:20:15 10° NNW 21:25:22 59° WSW 21:30:31 10° S
Cosmos 1844 Rocket 2.9 21:20:51 10° NNW 21:26:21 57° ENE 21:29:48 23° SE
Meteor 1-20 Rocket 4.4 21:21:04 10° N 21:26:34 53° ENE 21:30:20 21° SSE
CZ-4C R/B 3.7 21:20:08 10° NNW 21:26:35 38° NE 21:31:55 17° ESE
Meteor 2-10 Rocket 4.1 21:20:58 10° SSW 21:26:46 72° W 21:32:31 10° N
Cosmos 2237 Rocket 3.3 21:26:55 21° ESE 21:28:00 22° E 21:32:17 10° NE
Meteor 1-14 Rocket 4.2 21:22:29 10° N 21:28:13 85° E 21:33:26 13° S
Cosmos 2333 4.2 21:26:52 10° S 21:32:32 66° ESE 21:38:16 10° NNE
Cosmos 2278 Rocket 3.4 21:27:55 10° N 21:32:48 29° NE 21:35:34 20° E
Okean 2 Rocket 3.3 21:28:33 10° N 21:33:01 55° E 21:35:19 26° SSE
USA 234 3.4 21:30:18 20° ESE 21:34:59 69° NE 21:41:30 10° NW
Cosmos 2333 Rocket 2.8 21:32:00 16° SSE 21:35:56 36° ESE 21:41:09 10° NE
Helios 1B rocket 3.7 21:33:36 10° N 21:37:29 42° WNW 21:41:22 10° SW
Cosmos 1703 Rocket 4.1 21:40:57 10° SSW 21:45:19 59° W 21:49:41 10° N
Cosmos 1633 3.7 21:45:07 10° NNE 21:48:20 28° ENE 21:48:20 28° ENE
Envisat 4.2 21:43:52 10° SSW 21:48:36 40° W 21:53:23 10° NNW
Cosmos 2219 Rocket 2.2 21:43:48 10° S 21:49:16 58° ESE 21:54:48 10° NNE
SPOT 5 2.8 21:57:52 39° SE 21:59:27 64° ENE 22:03:57 10° N
SeaSat 1 3.2 21:58:47 30° E 22:00:22 38° NE 22:04:57 10° NNW
NOSS 0 Rocket 4.0 22:00:21 20° S 22:04:31 55° ESE 22:10:31 10° NE
ERS-1 Rocket 3.4 22:01:58 23° S 22:05:02 59° WSW 22:10:01 10° NNW
H-2A R/B 2.4 22:06:42 39° ESE 22:07:48 45° ENE 22:12:29 10° N
Cosmos 2151 Rocket 3.6 22:03:26 10° N 22:07:52 63° E 22:08:40 52° SE
Milstar 3 4.5 22:06:20 10° WSW 22:10:08 14° SSW 22:11:48 13° S
Cosmos 1674 Rocket 4.0 22:15:43 42° ENE 22:15:43 42° ENE 22:19:25 10° NNE
Cosmos 1570 Rocket 3.9 22:11:36 18° SSW 22:15:29 90° ESE 22:20:49 10° NNE
Okean 1 Rocket 4.2 22:13:07 10° NNE 22:16:49 30° ENE 22:16:49 30° ENE
Landsat 7 4.3 22:16:56 42° E 22:17:28 44° ENE 22:21:58 10° N
NOSS 3-1 (C) 3.4 22:13:41 10° SW 22:19:26 79° NW 22:25:57 10° NE
MetOp-B 4.4 22:17:12 32° S 22:19:38 66° WSW 22:24:58 10° NNW
Cosmos 1782 3.4 22:18:24 31° SW 22:20:05 54° W 22:24:02 10° N
Cosmos 1602 4.0 22:17:29 10° N 22:20:56 55° NE 22:20:56 55° NE
ASTEX 1 3.8 22:21:11 45° E 22:21:37 46° ENE 22:26:22 10° N
YAOGAN 11 4.5 22:20:57 42° SSW 22:22:10 58° W 22:26:27 10° NNW
Iridium 4 Rocket 3.9 22:21:13 10° NNE 22:24:24 34° ENE 22:24:24 34° ENE
H-2A R/B 2.7 22:27:25 40° ENE 22:27:25 40° ENE 22:31:22 10° N
DMSP B5D2-2 4.4 22:23:33 10° NNE 22:28:35 46° E 22:28:35 46° E
Cosmos 2208 Rocket 4.1 22:25:08 21° SSW 22:28:48 78° WNW 22:34:07 10° NNE
Cosmos 1346 Rocket 2.8 22:31:35 73° NNE 22:31:35 73° NNE 22:35:14 10° N
Cosmos 2297 4.5 22:26:12 10° N 22:31:31 38° ENE 22:32:35 35° E
Terra 2.3 22:32:31 43° ENE 22:32:35 43° ENE 22:37:05 10° N
Meteor 1-27 Rocket 3.6 22:33:10 49° S 22:34:45 82° E 22:40:20 10° NNE
NOSS 3-1 (A) 3.4 22:31:29 10° SW 22:37:16 81° NW 22:43:48 10° NE
ATLAS 2AS CENTAUR R/B 3.8 22:39:31 31° E 22:39:31 31° E 22:45:24 10° NE
COSMOS 2428 4.3 22:36:09 10° WSW 22:41:15 33° NW 22:46:24 10° N
Cosmos 2150 Rocket 4.3 22:37:07 10° N 22:42:28 53° ENE 22:42:57 51° E
ARGOS 3.7 22:41:15 38° SSW 22:42:58 53° W 22:48:15 10° NNW
Cosmos 1898 Rocket 3.4 22:39:00 10° NNW 22:44:12 72° ENE 22:44:33 69° E
Cosmos 1980 3.7 22:42:14 31° SSW 22:45:02 80° WNW 22:50:43 10° NNE
SL-08 R/B 4.4 22:39:39 10° N 22:45:49 84° W 22:47:23 53° S
Cosmos 1300 Rocket 3.6 22:43:36 10° N 22:47:37 75° N 22:47:37 75° N
Cosmos 1553 Rocket 4.0 22:46:05 41° SSW 22:48:25 81° W 22:54:39 10° N
Cosmos 1606 4.4 22:48:19 25° WSW 22:49:19 28° WNW 22:52:37 10° NNW
Abrixas rocket 4.2 22:46:21 10° WNW 22:47:59 27° WNW 22:47:59 27° WNW
SL-16 R/B 2.8 22:53:21 41° ENE 22:53:21 41° ENE 22:57:37 10° NE
SPOT 1/Viking Rocket 4.0 22:55:00 47° SW 22:55:56 53° W 23:01:03 10° NNW
Atlas Centaur 2 4.1 22:51:19 10° WSW 22:55:28 23° SSW 22:55:28 23° SSW
ATLAS 3B R/B 3.8 22:54:41 10° NNW 23:00:47 32° NE 23:03:13 25° ENE
Cosmos 2315 Rocket 4.4 23:01:59 46° E 23:01:59 46° E 23:07:41 10° NNE
Meteor 1-11 Rocket 4.0 22:57:40 10° NNW 23:03:06 58° W 23:04:01 51° SW
Cosmos 1814 Rocket 4.2 23:06:53 60° NE 23:06:53 60° NE 23:11:11 10° NNE
ATLAS CENTAUR R/B 3.3 23:12:45 24° NNE 23:12:45 24° NNE 23:14:23 10° NNE
Cosmos 2237 Rocket 2.8 23:08:38 27° SW 23:11:38 53° WNW 23:17:13 10° NNE
Cosmos 1378 Rocket 4.3 23:13:22 52° N 23:13:22 52° N 23:16:47 10° N
Okean 3 4.5 23:14:08 43° N 23:14:08 43° N 23:17:03 10° N
CZ-4 R/B 4.3 23:08:25 10° NNE 23:12:15 54° NE 23:12:15 54° NE
Cosmos 468 Rocket 4.2 23:13:08 65° WSW 23:13:36 69° WNW 23:18:56 10° NNE
Cosmos 883 Rocket 4.3 23:14:58 79° SE 23:15:16 82° E 23:21:25 10° N
CZ-4C R/B 3.1 23:08:27 10° NW 23:15:34 60° WSW 23:17:07 51° SSW
Cosmos 1386 Rocket 4.5 23:09:55 10° N 23:16:19 77° W 23:17:08 66° SSW
Cosmos 2278 Rocket 2.8 23:11:42 10° NW 23:17:02 44° WSW 23:17:25 43° WSW
CZ-4B R/B 4.0 23:13:08 10° NNE 23:16:37 47° NE 23:16:37 47° NE
USA 234 4.1 23:17:39 34° SW 23:18:15 35° SW 23:24:10 10° WNW
Cosmos 2333 Rocket 3.7 23:14:57 10° WSW 23:20:10 35° WNW 23:25:27 10° N
Cosmos 332 Rocket 4.5 23:26:46 50° NNE 23:26:46 50° NNE 23:30:22 10° NNE
Geosat 4.4 23:21:05 10° NNE 23:25:04 57° NNE 23:25:04 57° NNE
Cosmos 841 Rocket 4.3 23:28:09 43° NE 23:28:09 43° NE 23:31:41 10° NNE
Cosmos 1536 4.4 23:23:23 10° NNW 23:26:02 33° NW 23:26:02 33° NW
Cosmos 1709 Rocket 3.9 23:21:00 10° N 23:27:25 81° E 23:27:37 80° ESE
Cosmos 2219 Rocket 4.3 23:29:16 10° WSW 23:33:38 23° NW 23:38:02 10° N
SeaSat 1 3.9 23:38:34 28° W 23:38:34 28° W 23:42:15 10° NW
H-2A R/B 3.8 23:47:20 20° W 23:47:26 20° W 23:51:03 10° NW
